Regional Weather Roundup
Issued by NWS Newport/Morehead, NC

Current Version | Previous Version | Graphics & Text | Print | Product List | Glossary Off
Versions: 1 2 3 4 5 6 7 8 9 10 11 12 13 14 15 16 17 18 19 20 21 22 23 24 25 26 27 28 29 30 31 32 33 34 35 36 37 38 39 40 41 42 43 44 45 46 47 48 49 50

000
ASUS42 KMHX 270312
RWRMHX
WEATHER ROUNDUP FOR EASTERN NORTH CAROLINA
NATIONAL WEATHER SERVICE NEWPORT/MOREHEAD CITY NC
1000 PM EST THU FEB 26 2015

NOTE: "FAIR" INDICATES FEW OR NO CLOUDS BELOW 12,000 FEET
WITH NO SIGNIFICANT WEATHER AND/OR OBSTRUCTIONS TO VISIBILITY

NCZ015>017-031-032-045>047-102-103-270400-
NORTH COAST

CITY           SKY/WX    TMP DP  RH WIND       PRES   REMARKS
EDENTON        CLOUDY    32  29  90 N5        30.12R
ELIZABETH CITY NOT AVBL
KITTY HAWK     CLOUDY    33  30  90 N8G20     30.08R
MANTEO         CLOUDY    32  28  86 N15G24    30.10R

$$

NCZ045>047-081-094-103-104-270400-
CENTRAL COAST

CITY           SKY/WX    TMP DP  RH WIND       PRES   REMARKS
FRISCO         CLOUDY    34  31  88 N10G25    30.08R
SWANQUARTER      N/A     34 N/A N/A VRB9G15   30.09R

$$

NCZ095-097-098-100-101-270400-
SOUTHERN COAST

CITY           SKY/WX    TMP DP  RH WIND       PRES   REMARKS
BEAUFORT       CLOUDY    36  32  85 N13       30.11R
CEDAR ISLAND     N/A     34 N/A N/A NW17      30.15R
JACKSONVILLE   CLOUDY    36  31  82 N9        30.13R
PINEY ISLAND     N/A    N/A N/A N/A MISG      30.11R
WILMINGTON     CLOUDY    37  32  82 N7        30.13R


$$

NCZ011>013-027>030-043-044-078>080-089-090>093-098-270400-
COASTAL PLAIN

CITY           SKY/WX    TMP DP  RH WIND       PRES   REMARKS
AHOSKIE        PTCLDY    31  30  94 CALM      30.13R FOG
CLINTON        CLOUDY    37  33  87 CALM      30.15R
ELIZABETHTOWN  CLOUDY    37  33  85 CALM      30.14R
GOLDSBORO      NOT AVBL
GREENVILLE     CLOUDY    34  32  93 CALM      30.14R
HAVELOCK       CLOUDY    36  30  79 N8        30.13R
KENANSVILLE    CLOUDY    35  32  88 CALM      30.14R
KINSTON        CLOUDY    35  32  90 N3        30.14R
NEW BERN       CLOUDY    35  31  85 N8        30.13R
RICHLANDS      CLOUDY    36  30  80 CALM      30.14R
ROCKY MOUNT    CLOUDY    32  31  96 CALM      30.13R FOG
WASHINGTON     CLOUDY    33  31  94 CALM      30.13R
WHITEVILLE     CLOUDY    37  33  83 CALM      30.15R

$$

AMZ130-135-150-152-154-156-158-170-250-252-270-ANZ085-086-088-633-658-670-270400-
MARINE OBSERVATIONS

STATION/POSITION TIME  TEMP    WIND        PRES    WAVE   SWELL
                       AIR SEA DIR/SP/G            HT/PER HT/PER
                 (UTC) (F)     (DEG/KT/KT) (MB)    (FT/S) (FT/S)
CHESAPEAKE LIGHT 0200   32      20/ 19/ 20 1019.2
64 E VA BEACH    0250   42 59   10/ 25/ 29 1016.5   13/10  10/10
DUCK             0200   33 34   10/ 23/ 26 1017.2
2 E DUCK         0211      35                N/A    10/10   3/11
10 NE DUCK       0222      37                N/A    11/10   5/11
OREGON INLET     0200   33 37  350/ 20/ 25 1017.5
HATTERAS CG      0200   34 40  360/ 23/ 27 1017.5
CAPE LOOKOUT     0300   36     360/ 14/ 17 1019.0
BEAUFORT LAB     0200   36 40  360/ 13/ 15 1017.5
27 SE WRIGHTSVLE NOT AVBL
5 SE WRIGHTSVLE  NOT AVBL
225 S CAPE HAT   0250   62 70  300/ 12/ 16 1016.0   10/10  10/10
41 SE CHARLESTON 0250   45 66  360/ 12/ 19 1019.6    5/ 9   3/ 9

$$



USA.gov is the U.S. government's official web portal to all federal, state and local government web resources and services.